Home > Weather > Bielsko-Biała > Past weeks

Flag for Poland Weather for the Past 2 Weeks in Bielsko-Biała, Poland

Now
45 °F

Passing clouds.


Feels Like: 45 °F
Forecast: 38 / 43 °F
Wind: 2 mph from Southeast

Location: Katowice

Current Time: Feb 14, 2016 at 6:19:58 PM

Latest Report: Feb 14, 2016 at 5:00 PM


Visibility: 31 mi

Pressure: 29.38 "Hg

Humidity: 63%

Dew point: 33 °F

Location of Bielsko-BiałaLocation

Historic Weather in Bielsko-Biała — Graph

°F

Bielsko-Biała Temperature Yesterday

Maximum temperature yesterday: 39 °F (at 3:00 PM)
Minimum temperature yesterday: 33 °F (at 6:00 AM)
Average temperature yesterday: 37 °F

High & Low Weather Summary for the Past Weeks

 TemperatureHumidityPressure
High53 °F (Feb 9, 2:00 PM)97% (Feb 14, 6:00 AM)30.35 "Hg (Feb 14, 6:00 AM)
Low29 °F (Feb 7, 7:00 AM)44% (Feb 9, 1:00 PM)29.23 "Hg (Feb 10, 6:00 AM)
Average40 °F76%29.79 "Hg
* Reported Jan 30 5:00 PM — Feb 14 5:00 PM, Bielsko-Biała, Weather by CustomWeather, © 2016

Note: Actual official high and low records may vary slightly from our data, if they occured in-between our weather recording intervals... More about our weather records

Advertising

Bielsko-Biała Weather History for the Previous 24 Hours

 ConditionsComfort  
Time TempWeatherWind HumidityBarometerVisibility
5:00 PM
Sun, Feb 14
45 °FPassing clouds.2 mph63%29.38 "Hg31 mi
4:00 PM49 °FPartly sunny.5 mph59%29.35 "Hg19 mi
3:00 PM51 °FScattered clouds.5 mph57%29.32 "Hg19 mi
2:00 PM52 °FScattered clouds.5 mph58%29.32 "Hg19 mi
1:00 PM50 °FPassing clouds.6 mph64%29.32 "Hg19 mi
12:00 PM46 °FScattered clouds.5 mph74%29.32 "Hg6 mi
11:00 AM42 °FPartly sunny.3 mph78%29.32 "Hg6 mi
10:00 AM40 °FFog.2 mph96%29.32 "Hg4 mi
9:00 AM36 °FFog.2 mph97%29.32 "Hg2 mi
8:00 AM34 °FFog.1 mph97%29.35 "Hg2 mi
7:00 AM33 °FFog.2 mph97%29.35 "Hg0 mi
6:00 AM34 °FFog.2 mph97%29.35 "Hg0 mi
9:00 PM
Sat, Feb 13
37 °FFog.No wind94%29.35 "Hg2 mi
8:00 PM37 °FOvercast.1 mph94%29.38 "Hg2 mi
7:00 PM38 °FLight rain. Overcast.1 mph93%29.38 "Hg2 mi
6:00 PM38 °FFog.1 mph93%29.38 "Hg3 mi
Weather by CustomWeather, © 2016

See weather overviewHow to use our weather pages